User: anonymous   Login
Location: Unspecified
(0.0000°N, 0.0000°E)
Time: 23:47:57
(UTC+00:00)
Language:

NOSS 3-3 (A) - Orbit

View from above orbital plane
View from above orbital plane
View from above satellite
View from above satellite

Ground track
Ground track

The orbit data is extracted from the following two-line orbital elements,

1 28537U 05004A   24178.90618078 0.00000240  00000-0  21220-3 0    04
2 28537  63.4042 112.5386 0491484   1.6704 358.2807 13.40984686    02
Epoch (UTC): 26 June 2024 21:44:54
Eccentricity: 0.0491484
inclination: 63.4042°
perigee height: 738 km
apogee height: 1473 km
right ascension of ascending node: 112.5386°
argument of perigee: 1.6704°
revolutions per day: 13.40984686
mean anomaly at epoch: 358.2807°
orbit number at epoch: 0

The dashed part of the orbit path shows where the satellite is in the earth's shadow,  

DLR